Home   Weather   Porto Velho   Past weeks

Flag for Brazil Past Weather in Porto Velho, Rondônia, Brazil — Yesterday and Last 2 Weeks

91 °F

Scattered clouds.

Feels Like: 97 °F
Forecast: 74 / 92 °F
Wind: 6 mph from North

Location: Porto Velho Aeroporto

Current Time: Oct 25, 2016 at 3:16:18 PM

Latest Report: Oct 25, 2016 at 2:00 PM

Visibility: N/A

Pressure: 29.71 "Hg

Humidity: 49%

Dew Point: 70 °F

Location of Porto VelhoLocation

Past Weather in Porto Velho — Graph


Porto Velho Temperature Yesterday

Maximum temperature yesterday: 88 °F (at 2:00 PM)
Minimum temperature yesterday: 72 °F (at 5:00 AM)
Average temperature yesterday: 78 °F

High & Low Weather Summary for the Past Weeks

High97 °F (Oct 14, 2:00 PM)94% (Oct 10, 9:00 PM)30.09 "Hg (Oct 10, 9:00 PM)
Low72 °F (Oct 24, 5:00 AM)25% (Oct 23, 4:00 PM)29.65 "Hg (Oct 20, 4:00 PM)
Average82 °F75%29.81 "Hg
* Reported Oct 10 2:00 PM — Oct 25 2:00 PM, Porto Velho, Weather by CustomWeather, © 2016

Note: Actual official high and low records may vary slightly from our data, if they occured in-between our weather recording intervals... More about our weather records


Porto Velho Weather History for the Previous 24 Hours

Scroll right to see more
Time TempWeatherWind HumidityBarometerVisibility
2:00 PM
Tue, Oct 25
91 °FScattered clouds.6 mph49%29.71 "HgN/A
1:00 PM90 °FScattered clouds.7 mph52%29.77 "HgN/A
12:00 PM88 °FBroken clouds.5 mph59%29.83 "HgN/A
11:00 AM88 °FScattered clouds.9 mph55%29.83 "HgN/A
10:00 AM86 °FScattered clouds.2 mph62%29.86 "HgN/A
9:00 AM82 °FSunny.5 mph70%29.86 "Hg10 mi
8:00 AM81 °FSunny.3 mph74%29.83 "Hg10 mi
7:00 AM77 °FScattered clouds.3 mph83%29.80 "HgN/A
6:00 AM75 °FSunny.No wind89%29.77 "Hg10 mi
5:00 AM75 °FClear.5 mph94%29.77 "Hg10 mi
4:00 AM75 °FClear.3 mph94%29.77 "Hg10 mi
3:00 AM75 °FClear.2 mph94%29.80 "Hg10 mi
2:00 AM77 °FClear.3 mph89%29.80 "Hg10 mi
1:00 AM77 °FClear.3 mph89%29.83 "Hg10 mi
12:00 AM77 °FClear.No wind89%29.83 "Hg10 mi
11:00 PM
Mon, Oct 24
77 °FPassing clouds.No wind89%29.83 "HgN/A
10:00 PM77 °FPassing clouds.5 mph94%29.83 "HgN/A
9:00 PM77 °FPassing clouds.No wind94%29.80 "HgN/A
8:00 PM77 °FPassing clouds.3 mph94%29.77 "HgN/A
7:00 PM77 °FPartly cloudy.2 mph94%29.74 "HgN/A
6:00 PM79 °FBroken clouds.3 mph84%29.74 "HgN/A
5:00 PM81 °FScattered showers. Broken clouds.6 mph84%N/AN/A
4:00 PM81 °FLight rain. Broken clouds.8 mphN/AN/A3 mi
3:00 PM88 °FScattered showers. Broken clouds.5 mph59%N/AN/A
Weather by CustomWeather, © 2016

See weather overviewHow to use our weather pages